IZ1BLA-10 Weather Reports


time (UTC)temp
F
wind
direction
speed
knots
gust
knots
rain 1hr
in
rain 24hr
in
rain mn
in
humidity
%
barometer
mb
20260503183911 69 0.0 0.0 0.00 0.00 0.00 44 1014.9
20260503182911 70 0.0 0.0 0.00 0.00 0.00 44 1014.7
20260503181911 70 0.0 0.0 0.00 0.00 0.00 43 1014.8
20260503180911 70 0.0 0.0 0.00 0.00 0.00 41 1014.6
20260503175911 70 0.0 0.0 0.00 0.00 0.00 41 1014.6
20260503174911 70 0.0 0.0 0.00 0.00 0.00 41 1014.6
20260503173911 71 0.0 0.0 0.00 0.00 0.00 40 1014.6
20260503172911 70 0.0 0.0 0.00 0.00 0.00 41 1014.7
20260503171911 70 0.0 0.0 0.00 0.00 0.00 40 1014.8
20260503170911 70 0.0 0.0 0.00 0.00 0.00 37 1014.7
20260503150911 72 0.0 0.0 0.00 0.00 0.00 35 1014.6
20260503130911 69 0.0 0.0 0.00 0.00 0.00 38 1016.2
20260503080909 64 0.0 0.0 0.00 0.00 0.00 48 1018.5
20260503072909 57 0.0 0.0 0.00 0.00 0.00 67 1019.8
20260503071911 58 0.0 0.0 0.00 0.00 0.00 66 1019.5
20260503070909 56 0.0 0.0 0.00 0.00 0.00 68 1019.9
20260503054910 52 0.0 0.0 0.00 0.00 0.00 62 1020.6
20260503053909 52 0.0 0.0 0.00 0.00 0.00 63 1020.7
20260503052909 51 0.0 0.0 0.00 0.00 0.00 65 1020.8
20260503051909 53 0.0 0.0 0.00 0.00 0.00 63 1020.4
20260503050909 51 0.0 0.0 0.00 0.00 0.00 69 1020.8
20260503045910 50 0.0 0.0 0.00 0.00 0.00 62 1020.9
20260503043909 50 0.0 0.0 0.00 0.00 0.00 63 1020.6
20260503042910 49 0.0 0.0 0.00 0.00 0.00 65 1020.9
20260503041909 49 0.0 0.0 0.00 0.00 0.00 70 1020.9
20260503040909 49 0.0 0.0 0.00 0.00 0.00 66 1021.0
20260503035910 49 0.0 0.0 0.00 0.00 0.00 65 1021.0
20260503034909 49 0.0 0.0 0.00 0.00 0.00 67 1021.0
20260503033909 49 0.0 0.0 0.00 0.00 0.00 65 1021.1
20260503032909 49 0.0 0.0 0.00 0.00 0.00 65 1021.1
20260503031910 50 0.0 0.0 0.00 0.00 0.00 66 1021.0
20260503030910 49 0.0 0.0 0.00 0.00 0.00 69 1021.3
20260503025909 50 0.0 0.0 0.00 0.00 0.00 73 1021.3
20260503024909 50 0.0 0.0 0.00 0.00 0.00 67 1021.3
20260503023909 50 0.0 0.0 0.00 0.00 0.00 67 1021.3
20260503022909 50 0.0 0.0 0.00 0.00 0.00 71 1021.3
20260503021909 50 0.0 0.0 0.00 0.00 0.00 72 1021.5
20260503020909 51 0.0 0.0 0.00 0.00 0.00 72 1021.3
20260503015909 50 0.0 0.0 0.00 0.00 0.00 75 1021.5
20260503014909 51 0.0 0.0 0.00 0.00 0.00 69 1021.4
20260503013909 50 0.0 0.0 0.00 0.00 0.00 70 1021.7
20260503012910 50 0.0 0.0 0.00 0.00 0.00 70 1021.7
20260503011909 50 0.0 0.0 0.00 0.00 0.00 72 1021.8
20260503010909 50 0.0 0.0 0.00 0.00 0.00 75 1021.9
20260503005909 51 0.0 0.0 0.00 0.00 0.00 77 1021.7
20260503004909 51 0.0 0.0 0.00 0.00 0.00 75 1021.6
20260503003910 50 0.0 0.0 0.00 0.00 0.00 77 1021.8
20260503002909 50 0.0 0.0 0.00 0.00 0.00 77 1021.9
20260503001909 50 0.0 0.0 0.00 0.00 0.00 81 1022.1
20260503000909 50 0.0 0.0 0.00 0.00 0.00 72 1022.1
20260502235909 50 0.0 0.0 0.00 0.00 0.00 73 1022.2
20260502234909 50 0.0 0.0 0.00 0.00 0.00 83 1022.3
20260502233909 51 0.0 0.0 0.00 0.00 0.00 78 1022.3
20260502232909 51 0.0 0.0 0.00 0.00 0.00 77 1022.5
20260502231909 52 0.0 0.0 0.00 0.00 0.00 75 1022.3
20260502230909 52 0.0 0.0 0.00 0.00 0.00 76 1022.2
20260502225909 52 0.0 0.0 0.00 0.00 0.00 74 1022.3
20260502224909 52 0.0 0.0 0.00 0.00 0.00 75 1022.3
20260502223909 52 0.0 0.0 0.00 0.00 0.00 78 1022.3
20260502222909 53 0.0 0.0 0.00 0.00 0.00 75 1022.2
20260502221908 55 0.0 0.0 0.00 0.00 0.00 69 1021.9
20260502220909 53 0.0 0.0 0.00 0.00 0.00 75 1022.1
20260502215909 54 0.0 0.0 0.00 0.00 0.00 71 1022.0
20260502214909 53 0.0 0.0 0.00 0.00 0.00 72 1022.1
20260502213909 54 0.0 0.0 0.00 0.00 0.00 71 1021.9
20260502212909 55 0.0 0.0 0.00 0.00 0.00 71 1021.9
20260502211908 54 0.0 0.0 0.00 0.00 0.00 76 1022.0
20260502210909 54 0.0 0.0 0.00 0.00 0.00 76 1021.9
20260502205909 54 0.0 0.0 0.00 0.00 0.00 75 1021.9
20260502204909 54 0.0 0.0 0.00 0.00 0.00 75 1022.0
20260502203908 54 0.0 0.0 0.00 0.00 0.00 78 1021.8
20260502202908 56 0.0 0.0 0.00 0.00 0.00 73 1021.8
20260502201909 56 0.0 0.0 0.00 0.00 0.00 72 1021.7
20260502200908 56 0.0 0.0 0.00 0.00 0.00 71 1021.5
20260502195912 57 0.0 0.0 0.00 0.00 0.00 71 1021.4
20260502194908 57 0.0 0.0 0.00 0.00 0.00 70 1021.4
20260502193908 57 0.0 0.0 0.00 0.00 0.00 69 1021.3
20260502192908 59 0.0 0.0 0.00 0.00 0.00 66 1021.1
20260502191908 59 0.0 0.0 0.00 0.00 0.00 65 1020.8
20260502190909 60 0.0 0.0 0.00 0.00 0.00 62 1020.5
20260502185909 62 0.0 0.0 0.00 0.00 0.00 58 1020.0
20260502184908 64 0.0 0.0 0.00 0.00 0.00 53 1019.6